When you browse on this site, cookies collect data to enhance your experience and personalize the content and advertising you see.
Visit our Privacy Policy to learn more. By continuing to use the site, you agree to this use of cookies and data.
  • în România
  • Lista ţărilor
  • Pe 7 zile
  • Temperatura apei
  • Hartă satelitară
  • Meteo pe hartă
  • Widget-uri
  • user-avatar
    Intrare

    Meteo pe oră la Chełmża

    Astăzi, 20 Mai, Luni

    Timp Temperatura Precipitaţii Vânt Presiune Umiditate
    00:00 +16°C° 0 mm 3 m/s 747 mmHg 96%
    01:00 +16°C° 0 mm 3 m/s 747 mmHg 96%
    02:00 +14°C° 0 mm 3 m/s 747 mmHg 96%
    03:00 +14°C° 0 mm 3 m/s 747 mmHg 96%
    04:00 +14°C° 0 mm 3 m/s 747 mmHg 97%
    05:00 +16°C° 0 mm 3 m/s 747 mmHg 94%
    06:00 +18°C° 0 mm 4 m/s 746 mmHg 92%
    07:00 +19°C° 0 mm 4 m/s 746 mmHg 89%
    08:00 +20°C° 0 mm 4 m/s 746 mmHg 83%
    09:00 +22°C° 0 mm 5 m/s 746 mmHg 77%
    10:00 +25°C° 0 mm 5 m/s 746 mmHg 72%
    11:00 +25°C° 0.1 mm 5 m/s 746 mmHg 72%
    12:00 +24°C° 0.1 mm 6 m/s 746 mmHg 72%
    13:00 +26°C° 0.1 mm 6 m/s 745 mmHg 73%
    14:00 +24°C° 1.8 mm 6 m/s 745 mmHg 75%
    15:00 +23°C° 1.8 mm 5 m/s 745 mmHg 78%
    16:00 +23°C° 1.8 mm 4 m/s 745 mmHg 80%
    17:00 +22°C° 0.3 mm 4 m/s 745 mmHg 83%
    18:00 +21°C° 0.3 mm 3 m/s 745 mmHg 86%
    19:00 +20°C° 0.3 mm 3 m/s 745 mmHg 89%
    20:00 +19°C° 0 mm 3 m/s 745 mmHg 91%
    21:00 +18°C° 0 mm 3 m/s 745 mmHg 92%
    22:00 +18°C° 0 mm 2 m/s 745 mmHg 93%
    23:00 +17°C° 0.6 mm 2 m/s 745 mmHg 94%

    Mâine, 21 Mai, Marţi

    Timp Temperatura Precipitaţii Vânt Presiune Umiditate
    00:00 +17°C° 0.6 mm 2 m/s 745 mmHg 95%
    01:00 +16°C° 0.6 mm 2 m/s 745 mmHg 96%
    02:00 +16°C° 0.3 mm 2 m/s 745 mmHg 96%
    03:00 +16°C° 0.3 mm 2 m/s 745 mmHg 96%
    04:00 +15°C° 0.3 mm 2 m/s 745 mmHg 97%
    05:00 +16°C° 0.1 mm 3 m/s 745 mmHg 95%
    06:00 +17°C° 0.1 mm 3 m/s 745 mmHg 93%
    07:00 +18°C° 0.1 mm 3 m/s 745 mmHg 91%
    08:00 +20°C° 0.6 mm 3 m/s 745 mmHg 86%
    09:00 +21°C° 0.6 mm 4 m/s 745 mmHg 81%
    10:00 +22°C° 0.6 mm 4 m/s 745 mmHg 76%
    11:00 +22°C° 0.9 mm 4 m/s 745 mmHg 76%
    12:00 +22°C° 0.9 mm 5 m/s 745 mmHg 77%
    13:00 +22°C° 0.9 mm 5 m/s 745 mmHg 78%
    14:00 +22°C° 0.4 mm 5 m/s 744 mmHg 77%
    15:00 +22°C° 0.4 mm 5 m/s 744 mmHg 77%
    16:00 +22°C° 0.4 mm 5 m/s 744 mmHg 77%
    17:00 +21°C° 0.1 mm 4 m/s 744 mmHg 80%
    18:00 +20°C° 0.1 mm 3 m/s 744 mmHg 83%
    19:00 +19°C° 0.1 mm 3 m/s 743 mmHg 86%
    20:00 +18°C° 0 mm 3 m/s 743 mmHg 88%
    21:00 +17°C° 0 mm 3 m/s 743 mmHg 91%
    22:00 +16°C° 0 mm 3 m/s 743 mmHg 94%
    23:00 +14°C° 0 mm 3 m/s 743 mmHg 93%

    Poimâine, 22 Mai, Miercuri

    Timp Temperatura Precipitaţii Vânt Presiune Umiditate
    00:00 +14°C° 0 mm 3 m/s 743 mmHg 93%
    01:00 +13°C° 0 mm 3 m/s 743 mmHg 92%
    02:00 +13°C° 0.1 mm 3 m/s 743 mmHg 93%
    03:00 +14°C° 0.1 mm 3 m/s 743 mmHg 94%
    04:00 +14°C° 0.1 mm 3 m/s 743 mmHg 94%
    05:00 +14°C° 0 mm 3 m/s 743 mmHg 93%
    06:00 +16°C° 0 mm 3 m/s 743 mmHg 92%
    07:00 +15°C° 0 mm 4 m/s 744 mmHg 91%
    08:00 +17°C° 0.1 mm 4 m/s 744 mmHg 89%
    09:00 +17°C° 0.1 mm 4 m/s 744 mmHg 87%
    10:00 +18°C° 0.1 mm 4 m/s 744 mmHg 85%
    11:00 +19°C° 0.2 mm 4 m/s 744 mmHg 83%
    12:00 +19°C° 0.2 mm 4 m/s 744 mmHg 80%
    13:00 +20°C° 0.2 mm 4 m/s 744 mmHg 78%
    14:00 +20°C° 0.5 mm 4 m/s 744 mmHg 77%
    15:00 +21°C° 0.5 mm 4 m/s 744 mmHg 76%
    16:00 +21°C° 0.5 mm 3 m/s 744 mmHg 76%
    17:00 +20°C° 0.7 mm 3 m/s 745 mmHg 80%
    18:00 +19°C° 0.7 mm 2 m/s 745 mmHg 84%
    19:00 +18°C° 0.7 mm 2 m/s 745 mmHg 89%
    20:00 +17°C° 0.1 mm 2 m/s 745 mmHg 91%
    21:00 +16°C° 0.1 mm 2 m/s 746 mmHg 93%
    22:00 +16°C° 0.1 mm 2 m/s 746 mmHg 95%
    23:00 +15°C° 0.9 mm 2 m/s 746 mmHg 96%

    23 Mai, Joi

    Timp Temperatura Precipitaţii Vânt Presiune Umiditate
    00:00 +14°C° 0.9 mm 3 m/s 746 mmHg 96%
    01:00 +13°C° 0.9 mm 3 m/s 747 mmHg 97%
    02:00 +13°C° 0.3 mm 3 m/s 747 mmHg 97%
    03:00 +13°C° 0.3 mm 4 m/s 747 mmHg 96%
    04:00 +13°C° 0.3 mm 5 m/s 748 mmHg 96%
    05:00 +13°C° 0.2 mm 5 m/s 748 mmHg 95%
    06:00 +13°C° 0.2 mm 5 m/s 749 mmHg 94%
    07:00 +13°C° 0.2 mm 5 m/s 749 mmHg 93%
    08:00 +11°C° 0.2 mm 6 m/s 750 mmHg 92%
    09:00 +11°C° 0.2 mm 6 m/s 750 mmHg 92%
    10:00 +10°C° 0.2 mm 6 m/s 751 mmHg 92%
    11:00 +10°C° 0.1 mm 6 m/s 751 mmHg 89%
    12:00 +11°C° 0.1 mm 6 m/s 752 mmHg 86%
    13:00 +11°C° 0.1 mm 6 m/s 752 mmHg 83%
    14:00 +12°C° 0 mm 5 m/s 752 mmHg 82%
    15:00 +10°C° 0 mm 5 m/s 752 mmHg 80%
    16:00 +11°C° 0 mm 4 m/s 752 mmHg 79%
    17:00 +11°C° 0 mm 4 m/s 753 mmHg 79%
    18:00 +12°C° 0 mm 3 m/s 753 mmHg 79%
    19:00 +12°C° 0 mm 3 m/s 753 mmHg 79%
    20:00 +11°C° 0 mm 3 m/s 753 mmHg 82%
    21:00 +9°C° 0 mm 3 m/s 753 mmHg 86%
    22:00 +8°C° 0 mm 3 m/s 754 mmHg 90%
    23:00 +8°C° 0 mm 3 m/s 753 mmHg 92%

    24 Mai, Vineri

    Timp Temperatura Precipitaţii Vânt Presiune Umiditate
    00:00 +7°C° 0 mm 3 m/s 753 mmHg 93%
    01:00 +7°C° 0 mm 3 m/s 753 mmHg 95%
    02:00 +6°C° 0 mm 2 m/s 753 mmHg 95%
    03:00 +6°C° 0 mm 2 m/s 753 mmHg 95%
    04:00 +6°C° 0 mm 2 m/s 753 mmHg 95%
    05:00 +8°C° 0 mm 2 m/s 753 mmHg 89%
    06:00 +10°C° 0 mm 2 m/s 753 mmHg 83%
    07:00 +12°C° 0 mm 2 m/s 753 mmHg 77%
    08:00 +14°C° 0 mm 2 m/s 753 mmHg 70%
    09:00 +15°C° 0 mm 2 m/s 752 mmHg 63%
    10:00 +17°C° 0 mm 2 m/s 752 mmHg 56%
    11:00 +18°C° 0 mm 2 m/s 752 mmHg 53%
    12:00 +20°C° 0 mm 1 m/s 751 mmHg 50%
    13:00 +21°C° 0 mm 1 m/s 751 mmHg 46%
    14:00 +21°C° 0 mm 1 m/s 751 mmHg 46%
    15:00 +21°C° 0 mm 1 m/s 750 mmHg 46%
    16:00 +19°C° 0 mm 0 m/s 750 mmHg 46%
    17:00 +19°C° 0 mm 1 m/s 750 mmHg 53%
    18:00 +18°C° 0 mm 1 m/s 750 mmHg 60%
    19:00 +16°C° 0 mm 1 m/s 749 mmHg 68%
    20:00 +15°C° 0 mm 1 m/s 749 mmHg 71%
    21:00 +13°C° 0 mm 2 m/s 750 mmHg 75%
    22:00 +12°C° 0 mm 2 m/s 750 mmHg 79%
    23:00 +12°C° 0 mm 2 m/s 750 mmHg 81%

    25 Mai, Sâmbătă

    Timp Temperatura Precipitaţii Vânt Presiune Umiditate
    00:00 +10°C° 0 mm 2 m/s 750 mmHg 84%
    01:00 +9°C° 0 mm 2 m/s 750 mmHg 87%
    02:00 +9°C° 0 mm 2 m/s 749 mmHg 88%
    03:00 +9°C° 0 mm 2 m/s 749 mmHg 89%
    04:00 +9°C° 0 mm 2 m/s 749 mmHg 91%
    05:00 +10°C° 0 mm 2 m/s 749 mmHg 86%
    06:00 +13°C° 0 mm 2 m/s 750 mmHg 81%
    07:00 +15°C° 0 mm 2 m/s 750 mmHg 76%
    08:00 +16°C° 0 mm 2 m/s 750 mmHg 69%
    09:00 +18°C° 0 mm 2 m/s 750 mmHg 63%
    10:00 +19°C° 0 mm 2 m/s 750 mmHg 56%
    11:00 +20°C° 0 mm 2 m/s 750 mmHg 54%
    12:00 +21°C° 0 mm 1 m/s 749 mmHg 52%
    13:00 +22°C° 0 mm 1 m/s 749 mmHg 50%
    14:00 +22°C° 0 mm 1 m/s 749 mmHg 50%
    15:00 +22°C° 0 mm 1 m/s 749 mmHg 49%
    16:00 +23°C° 0 mm 1 m/s 749 mmHg 49%
    17:00 +21°C° 0 mm 1 m/s 749 mmHg 54%
    18:00 +20°C° 0 mm 1 m/s 749 mmHg 60%
    19:00 +19°C° 0 mm 1 m/s 749 mmHg 65%
    20:00 +18°C° 0 mm 1 m/s 749 mmHg 67%
    21:00 +16°C° 0 mm 1 m/s 749 mmHg 69%
    22:00 +15°C° 0 mm 2 m/s 749 mmHg 71%
    23:00 +14°C° 0 mm 2 m/s 750 mmHg 74%
    Arată mai mult